Time,TemperatureF,DewpointF,PressureIn,WindDirection,WindDirectionDegrees,WindSpeedMPH,WindSpeedGustMPH,Humidity,HourlyPrecipIn,Conditions,Clouds,dailyrainin,SoftwareType,DateUTC
2013-06-27 00:12:00,75.0,64.0,-100.00,NW,305,4.0,5.0,68,0.00,,,-99.99,,2013-06-27 05:12:00,
2013-06-27 00:22:00,75.0,64.0,-100.00,WNW,300,3.0,4.0,68,0.00,,,-99.99,,2013-06-27 05:22:00,
2013-06-27 00:32:00,75.0,65.0,-100.00,WNW,295,3.0,4.0,70,0.00,,,-99.99,,2013-06-27 05:32:00,
2013-06-27 00:42:00,75.0,65.0,-100.00,NW,305,4.0,5.0,71,0.00,,,-99.99,,2013-06-27 05:42:00,
2013-06-27 00:53:00,75.0,65.0,-100.00,NW,305,3.0,4.0,71,0.00,,,-99.99,,2013-06-27 05:53:00,
2013-06-27 01:01:00,74.0,65.0,-100.00,NW,315,2.0,4.0,72,0.00,,,-99.99,,2013-06-27 06:01:00,
2013-06-27 01:12:00,74.0,65.0,-100.00,NW,310,2.0,4.0,74,0.00,,,-99.99,,2013-06-27 06:12:00,
2013-06-27 01:22:00,73.0,66.0,-100.00,WNW,295,3.0,4.0,76,0.00,,,-99.99,,2013-06-27 06:22:00,
2013-06-27 01:34:00,73.0,66.0,-100.00,WNW,285,2.0,4.0,78,0.00,,,-99.99,,2013-06-27 06:34:00,
2013-06-27 01:43:00,73.0,66.0,-100.00,WNW,300,3.0,4.0,79,0.00,,,-99.99,,2013-06-27 06:43:00,
2013-06-27 01:53:00,73.0,66.0,-100.00,NW,310,3.0,4.0,79,0.00,,,-99.99,,2013-06-27 06:53:00,
2013-06-27 02:02:00,73.0,66.0,-100.00,WNW,290,4.0,4.0,79,0.00,,,-99.99,,2013-06-27 07:02:00,
2013-06-27 02:12:00,73.0,66.0,-100.00,WNW,290,4.0,4.0,79,0.00,,,-99.99,,2013-06-27 07:12:00,
2013-06-27 02:22:00,72.0,66.0,-100.00,West,275,3.0,5.0,82,0.00,,,-99.99,,2013-06-27 07:22:00,
2013-06-27 02:33:00,72.0,66.0,-100.00,West,275,3.0,5.0,82,0.00,,,-99.99,,2013-06-27 07:33:00,
2013-06-27 02:42:00,72.0,67.0,-100.00,NW,310,4.0,4.0,85,0.00,,,-99.99,,2013-06-27 07:42:00,
2013-06-27 02:52:00,72.0,67.0,-100.00,NW,310,4.0,4.0,85,0.00,,,-99.99,,2013-06-27 07:52:00,
2013-06-27 03:01:00,72.0,68.0,-100.00,NW,305,3.0,4.0,86,0.00,,,-99.99,,2013-06-27 08:01:00,
2013-06-27 03:11:00,72.0,67.0,-100.00,WNW,285,3.0,4.0,86,0.00,,,-99.99,,2013-06-27 08:11:00,
2013-06-27 03:22:00,72.0,67.0,-100.00,WNW,290,3.0,4.0,87,0.00,,,-99.99,,2013-06-27 08:22:00,
2013-06-27 03:34:00,71.0,67.0,-100.00,WNW,300,2.0,4.0,87,0.00,,,-99.99,,2013-06-27 08:34:00,
2013-06-27 03:43:00,71.0,67.0,-100.00,NNW,330,2.0,4.0,87,0.00,,,-99.99,,2013-06-27 08:43:00,
2013-06-27 03:52:00,71.0,67.0,-100.00,NNW,340,2.0,4.0,87,0.00,,,-99.99,,2013-06-27 08:52:00,
2013-06-27 04:02:00,71.0,67.0,-100.00,NNW,340,2.0,4.0,87,0.00,,,-99.99,,2013-06-27 09:02:00,
2013-06-27 04:11:00,71.0,67.0,-100.00,NW,315,1.0,2.0,87,0.00,,,-99.99,,2013-06-27 09:11:00,
2013-06-27 04:22:00,71.0,67.0,-100.00,NW,315,1.0,2.0,87,0.00,,,-99.99,,2013-06-27 09:22:00,
2013-06-27 04:34:00,70.0,66.0,-100.00,WSW,255,3.0,3.0,89,0.00,,,-99.99,,2013-06-27 09:34:00,
2013-06-27 04:43:00,70.0,66.0,-100.00,WSW,255,3.0,3.0,89,0.00,,,-99.99,,2013-06-27 09:43:00,
2013-06-27 04:53:00,68.0,65.0,-100.00,WSW,250,3.0,4.0,92,0.00,,,-99.99,,2013-06-27 09:53:00,
2013-06-27 05:01:00,68.0,66.0,-100.00,SW,220,2.0,3.0,93,0.00,,,-99.99,,2013-06-27 10:01:00,
2013-06-27 05:11:00,67.0,65.0,-100.00,WSW,250,3.0,4.0,93,0.00,,,-99.99,,2013-06-27 10:11:00,
2013-06-27 05:22:00,68.0,66.0,-100.00,WSW,255,1.0,4.0,93,0.00,,,-99.99,,2013-06-27 10:22:00,
2013-06-27 05:32:00,68.0,66.0,-100.00,WSW,240,2.0,2.0,93,0.00,,,-99.99,,2013-06-27 10:32:00,
2013-06-27 05:44:00,68.0,66.0,-100.00,West,275,3.0,4.0,94,0.00,,,-99.99,,2013-06-27 10:44:00,
2013-06-27 05:54:00,68.0,66.0,-100.00,WSW,250,3.0,4.0,94,0.00,,,-99.99,,2013-06-27 10:54:00,
2013-06-27 06:01:00,68.0,66.0,-100.00,WSW,250,3.0,4.0,94,0.00,,,-99.99,,2013-06-27 11:01:00,
2013-06-27 06:11:00,68.0,66.0,-100.00,WSW,250,3.0,4.0,94,0.00,,,-99.99,,2013-06-27 11:11:00,
2013-06-27 06:22:00,68.0,66.0,-100.00,West,270,5.0,6.0,94,0.00,,,-99.99,,2013-06-27 11:22:00,
2013-06-27 06:43:00,68.0,67.0,-100.00,West,265,4.0,4.0,94,0.00,,,-99.99,,2013-06-27 11:43:00,
2013-06-27 06:52:00,69.0,67.0,-100.00,WSW,250,2.0,4.0,93,0.00,,,-99.99,,2013-06-27 11:52:00,
2013-06-27 07:02:00,69.0,67.0,-100.00,WSW,250,2.0,4.0,93,0.00,,,-99.99,,2013-06-27 12:02:00,
2013-06-27 07:11:00,70.0,68.0,-100.00,SW,230,1.0,2.0,92,0.00,,,-99.99,,2013-06-27 12:11:00,
2013-06-27 07:22:00,71.0,68.0,-100.00,SSW,205,4.0,4.0,91,0.00,,,-99.99,,2013-06-27 12:22:00,
2013-06-27 07:42:00,72.0,69.0,-100.00,SW,235,2.0,3.0,88,0.00,,,-99.99,,2013-06-27 12:42:00,
2013-06-27 08:01:00,73.0,69.0,-100.00,WSW,255,4.0,6.0,84,0.00,,,-99.99,,2013-06-27 13:01:00,
2013-06-27 08:11:00,75.0,68.0,-100.00,WSW,255,4.0,6.0,80,0.00,,,-99.99,,2013-06-27 13:11:00,
2013-06-27 08:22:00,75.0,67.0,-100.00,WNW,290,4.0,6.0,75,0.00,,,-99.99,,2013-06-27 13:22:00,
2013-06-27 08:34:00,76.0,67.0,-100.00,WSW,250,4.0,6.0,75,0.00,,,-99.99,,2013-06-27 13:34:00,
2013-06-27 08:43:00,75.0,67.0,-100.00,WSW,255,4.0,5.0,74,0.00,,,-99.99,,2013-06-27 13:43:00,
2013-06-27 08:52:00,76.0,68.0,-100.00,SW,230,4.0,5.0,74,0.00,,,-99.99,,2013-06-27 13:52:00,
2013-06-27 09:02:00,78.0,68.0,-100.00,WSW,245,2.0,6.0,72,0.00,,,-99.99,,2013-06-27 14:02:00,
2013-06-27 09:11:00,80.0,69.0,-100.00,SW,230,4.0,4.0,69,0.00,,,-99.99,,2013-06-27 14:11:00,
2013-06-27 09:22:00,80.0,68.0,-100.00,SW,230,4.0,6.0,66,0.00,,,-99.99,,2013-06-27 14:22:00,
2013-06-27 09:33:00,79.0,67.0,-100.00,WSW,255,4.0,5.0,66,0.00,,,-99.99,,2013-06-27 14:33:00,
2013-06-27 09:43:00,80.0,68.0,-100.00,WSW,255,3.0,4.0,67,0.00,,,-99.99,,2013-06-27 14:43:00,
2013-06-27 09:52:00,81.0,69.0,-100.00,SW,230,6.0,8.0,66,0.00,,,-99.99,,2013-06-27 14:52:00,
2013-06-27 10:12:00,81.0,67.0,-100.00,SW,220,6.0,6.0,62,0.00,,,-99.99,,2013-06-27 15:12:00,
2013-06-27 10:22:00,81.0,67.0,-100.00,WSW,245,5.0,7.0,63,0.00,,,-99.99,,2013-06-27 15:22:00,
2013-06-27 10:33:00,80.0,67.0,-100.00,WSW,250,4.0,7.0,63,0.00,,,-99.99,,2013-06-27 15:33:00,
2013-06-27 10:42:00,80.0,67.0,-100.00,SW,230,6.0,7.0,65,0.00,,,-99.99,,2013-06-27 15:42:00,
2013-06-27 10:52:00,80.0,67.0,-100.00,WSW,255,6.0,7.0,66,0.00,,,-99.99,,2013-06-27 15:52:00,
2013-06-27 11:02:00,79.0,67.0,-100.00,WSW,250,8.0,10.0,66,0.00,,,-99.99,,2013-06-27 16:02:00,
2013-06-27 11:11:00,79.0,67.0,-100.00,WSW,245,6.0,10.0,66,0.00,,,-99.99,,2013-06-27 16:11:00,
2013-06-27 11:23:00,80.0,67.0,-100.00,WSW,250,7.0,10.0,66,0.00,,,-99.99,,2013-06-27 16:23:00,
2013-06-27 11:34:00,80.0,67.0,-100.00,West,280,7.0,9.0,65,0.00,,,-99.99,,2013-06-27 16:34:00,
2013-06-27 11:43:00,80.0,66.0,-100.00,WNW,285,10.0,14.0,62,0.00,,,-99.99,,2013-06-27 16:43:00,
2013-06-27 12:01:00,79.0,66.0,-100.00,West,280,11.0,17.0,63,0.03,,,-99.99,,2013-06-27 17:01:00,
2013-06-27 12:11:00,79.0,66.0,-100.00,WNW,295,11.0,14.0,65,0.00,,,-99.99,,2013-06-27 17:11:00,
2013-06-27 12:22:00,78.0,67.0,-100.00,WNW,300,9.0,17.0,67,0.03,,,-99.99,,2013-06-27 17:22:00,
2013-06-27 12:33:00,78.0,66.0,-100.00,WNW,295,13.0,20.0,67,0.00,,,-99.99,,2013-06-27 17:33:00,
2013-06-27 12:43:00,77.0,66.0,-100.00,WNW,295,8.0,17.0,68,0.00,,,-99.99,,2013-06-27 17:43:00,
2013-06-27 12:53:00,78.0,66.0,-100.00,WNW,295,12.0,16.0,66,0.04,,,-99.99,,2013-06-27 17:53:00,
2013-06-27 13:01:00,78.0,65.0,-100.00,NW,310,11.0,17.0,65,0.00,,,-99.99,,2013-06-27 18:01:00,
2013-06-27 13:11:00,78.0,65.0,-100.00,NW,310,10.0,16.0,64,0.00,,,-99.99,,2013-06-27 18:11:00,
2013-06-27 13:22:00,77.0,64.0,-100.00,NW,310,16.0,22.0,64,0.00,,,-99.99,,2013-06-27 18:22:00,
2013-06-27 13:32:00,77.0,65.0,-100.00,WNW,290,11.0,19.0,66,0.03,,,-99.99,,2013-06-27 18:32:00,
2013-06-27 13:44:00,75.0,66.0,-100.00,WNW,290,7.0,14.0,73,0.07,,,-99.99,,2013-06-27 18:44:00,
2013-06-27 13:52:00,75.0,68.0,-100.00,West,280,7.0,11.0,78,0.03,,,-99.99,,2013-06-27 18:52:00,
2013-06-27 14:01:00,75.0,68.0,-100.00,West,270,7.0,11.0,78,0.00,,,-99.99,,2013-06-27 19:01:00,
2013-06-27 14:11:00,75.0,68.0,-100.00,West,275,6.0,9.0,78,0.00,,,-99.99,,2013-06-27 19:11:00,
2013-06-27 14:23:00,76.0,68.0,-100.00,WNW,290,7.0,10.0,78,0.00,,,-99.99,,2013-06-27 19:23:00,
2013-06-27 14:34:00,78.0,70.0,-100.00,WNW,295,7.0,10.0,75,0.00,,,-99.99,,2013-06-27 19:34:00,
2013-06-27 14:42:00,78.0,69.0,-100.00,NW,315,9.0,13.0,72,0.00,,,-99.99,,2013-06-27 19:42:00,
2013-06-27 14:53:00,80.0,69.0,-100.00,NW,315,7.0,12.0,71,0.00,,,-99.99,,2013-06-27 19:53:00,
2013-06-27 15:01:00,81.0,69.0,-100.00,NW,315,7.0,12.0,67,0.00,,,-99.99,,2013-06-27 20:01:00,
2013-06-27 15:11:00,82.0,69.0,-100.00,NW,310,9.0,13.0,65,0.00,,,-99.99,,2013-06-27 20:11:00,
2013-06-27 15:22:00,82.0,68.0,-100.00,WNW,300,11.0,15.0,63,0.00,,,-99.99,,2013-06-27 20:22:00,
2013-06-27 15:36:00,82.0,68.0,-100.00,NW,320,8.0,16.0,62,0.00,,,-99.99,,2013-06-27 20:36:00,
2013-06-27 15:45:00,83.0,67.0,-100.00,WNW,295,8.0,16.0,60,0.00,,,-99.99,,2013-06-27 20:45:00,
2013-06-27 15:54:00,83.0,66.0,-100.00,NW,305,9.0,16.0,57,0.00,,,-99.99,,2013-06-27 20:54:00,
2013-06-27 16:05:00,84.0,67.0,-100.00,WNW,295,7.0,16.0,55,0.00,,,-99.99,,2013-06-27 21:05:00,
2013-06-27 16:13:00,84.0,67.0,-100.00,WNW,295,9.0,12.0,55,0.00,,,-99.99,,2013-06-27 21:13:00,
2013-06-27 16:24:00,85.0,67.0,-100.00,West,275,8.0,15.0,56,0.00,,,-99.99,,2013-06-27 21:24:00,
2013-06-27 16:36:00,83.0,67.0,-100.00,WNW,295,7.0,12.0,58,0.00,,,-99.99,,2013-06-27 21:36:00,
2013-06-27 16:45:00,84.0,68.0,-100.00,WNW,295,12.0,15.0,59,0.00,,,-99.99,,2013-06-27 21:45:00,
2013-06-27 16:53:00,85.0,69.0,-100.00,WNW,295,9.0,14.0,59,0.00,,,-99.99,,2013-06-27 21:53:00,
2013-06-27 17:06:00,85.0,69.0,-100.00,WNW,290,9.0,15.0,59,0.00,,,-99.99,,2013-06-27 22:06:00,
2013-06-27 17:14:00,85.0,69.0,-100.00,WNW,300,10.0,17.0,58,0.00,,,-99.99,,2013-06-27 22:14:00,
2013-06-27 17:23:00,85.0,69.0,-100.00,WNW,285,10.0,16.0,57,0.00,,,-99.99,,2013-06-27 22:23:00,
2013-06-27 17:35:00,85.0,69.0,-100.00,WNW,295,10.0,16.0,57,0.00,,,-99.99,,2013-06-27 22:35:00,
2013-06-27 17:47:00,86.0,69.0,-100.00,WNW,295,6.0,16.0,57,0.00,,,-99.99,,2013-06-27 22:47:00,
2013-06-27 18:05:00,86.0,68.0,-100.00,NW,305,11.0,17.0,55,0.00,,,-99.99,,2013-06-27 23:05:00,
2013-06-27 18:15:00,86.0,66.0,-100.00,NW,320,11.0,16.0,52,0.00,,,-99.99,,2013-06-27 23:15:00,
2013-06-27 18:25:00,86.0,65.0,-100.00,WNW,300,12.0,19.0,50,0.00,,,-99.99,,2013-06-27 23:25:00,
2013-06-27 18:34:00,86.0,64.0,-100.00,NW,315,12.0,18.0,48,0.00,,,-99.99,,2013-06-27 23:34:00,
2013-06-27 18:55:00,86.0,64.0,-100.00,NW,315,9.0,16.0,48,0.00,,,-99.99,,2013-06-27 23:55:00,
2013-06-27 19:06:00,85.0,63.0,-100.00,NW,310,10.0,15.0,47,0.00,,,-99.99,,2013-06-28 00:06:00,
2013-06-27 19:27:00,85.0,63.0,-100.00,NW,310,8.0,16.0,47,0.00,,,-99.99,,2013-06-28 00:27:00,
2013-06-27 19:45:00,85.0,63.0,-100.00,NW,310,7.0,17.0,49,0.00,,,-99.99,,2013-06-28 00:45:00,
2013-06-27 19:54:00,85.0,64.0,-100.00,NW,305,7.0,11.0,50,0.00,,,-99.99,,2013-06-28 00:54:00,
2013-06-27 20:07:00,84.0,64.0,-100.00,NNW,330,7.0,12.0,50,0.00,,,-99.99,,2013-06-28 01:07:00,
2013-06-27 20:13:00,84.0,63.0,-100.00,NW,315,7.0,15.0,49,0.00,,,-99.99,,2013-06-28 01:13:00,
2013-06-27 20:24:00,83.0,62.0,-100.00,WNW,300,7.0,13.0,49,0.00,,,-99.99,,2013-06-28 01:24:00,
2013-06-27 20:35:00,83.0,62.0,-100.00,NW,305,6.0,12.0,49,0.00,,,-99.99,,2013-06-28 01:35:00,
2013-06-27 20:45:00,82.0,61.0,-100.00,NW,305,6.0,9.0,49,0.00,,,-99.99,,2013-06-28 01:45:00,
2013-06-27 21:05:00,81.0,62.0,-100.00,WNW,300,6.0,7.0,52,0.00,,,-99.99,,2013-06-28 02:05:00,
2013-06-27 21:17:00,80.0,61.0,-100.00,NW,305,5.0,9.0,53,0.00,,,-99.99,,2013-06-28 02:17:00,
2013-06-27 21:27:00,79.0,62.0,-100.00,WNW,295,6.0,7.0,55,0.00,,,-99.99,,2013-06-28 02:27:00,
2013-06-27 22:07:00,77.0,63.0,-100.00,WNW,295,6.0,9.0,62,0.00,,,-99.99,,2013-06-28 03:07:00,
2013-06-27 22:14:00,76.0,63.0,-100.00,NW,305,6.0,9.0,63,0.00,,,-99.99,,2013-06-28 03:14:00,
2013-06-27 22:26:00,76.0,63.0,-100.00,WNW,295,6.0,7.0,63,0.00,,,-99.99,,2013-06-28 03:26:00,
2013-06-27 22:44:00,76.0,63.0,-100.00,WNW,295,6.0,9.0,63,0.00,,,-99.99,,2013-06-28 03:44:00,
2013-06-27 23:02:00,76.0,62.0,-100.00,WNW,285,6.0,8.0,62,0.00,,,-99.99,,2013-06-28 04:02:00,
2013-06-27 23:11:00,76.0,62.0,-100.00,WNW,290,7.0,9.0,62,0.00,,,-99.99,,2013-06-28 04:11:00,
2013-06-27 23:22:00,75.0,62.0,-100.00,West,275,7.0,10.0,63,0.00,,,-99.99,,2013-06-28 04:22:00,
2013-06-27 23:33:00,75.0,62.0,-100.00,WNW,285,7.0,10.0,63,0.00,,,-99.99,,2013-06-28 04:33:00,
2013-06-27 23:43:00,75.0,62.0,-100.00,West,275,6.0,9.0,63,0.00,,,-99.99,,2013-06-28 04:43:00,